TimeCEST,TemperatureF,Dew PointF,Humidity,Sea Level PressureIn,VisibilityMPH,Wind Direction,Wind SpeedMPH,Gust SpeedMPH,PrecipitationIn,Events,Conditions,WindDirDegrees,DateUTC
12:00 AM,60.8,59.0,94,30.09,-9999.0,Variable,2.3,-,N/A,,Clear,0,2012-10-06 22:00:00
12:30 AM,59.0,57.2,94,30.06,3.7,Variable,2.3,-,N/A,,Unknown,0,2012-10-06 22:30:00
1:00 AM,59.0,59.0,100,30.06,3.7,Variable,2.3,-,N/A,,Partly Cloudy,0,2012-10-06 23:00:00
1:30 AM,57.2,57.2,100,30.06,3.1,East,4.6,-,N/A,,Mist,80,2012-10-06 23:30:00
2:00 AM,58,57,94,30.07,3,NE,4.5,,,,Mist,50,2012-10-07 00:00:00
2:00 AM,59.0,57.2,94,30.06,3.1,NE,4.6,-,N/A,,Mist,50,2012-10-07 00:00:00
2:30 AM,60.8,59.0,94,30.06,3.1,NE,4.6,-,N/A,,Mist,40,2012-10-07 00:30:00
3:00 AM,60.8,59.0,94,30.06,3.1,East,4.6,-,N/A,,Mist,80,2012-10-07 01:00:00
3:30 AM,59.0,59.0,100,30.04,3.1,ENE,4.6,-,N/A,,Mist,60,2012-10-07 01:30:00
4:00 AM,57.2,57.2,100,30.04,3.1,NE,4.6,-,N/A,,Partly Cloudy,50,2012-10-07 02:00:00
4:30 AM,60.8,60.8,100,30.01,3.1,ENE,4.6,-,N/A,,Partly Cloudy,70,2012-10-07 02:30:00
5:00 AM,62,60,93,30.03,3,ENE,4.5,,,,Mist,70,2012-10-07 03:00:00
5:00 AM,60.8,60.8,100,30.01,3.1,ENE,4.6,-,N/A,,Partly Cloudy,70,2012-10-07 03:00:00
5:30 AM,62.6,60.8,94,30.01,3.1,ENE,4.6,-,N/A,,Partly Cloudy,70,2012-10-07 03:30:00
6:00 AM,62,61,96,30.01,3,ENE,4.5,,,,Mist,60,2012-10-07 04:00:00
6:00 AM,62.6,60.8,94,30.01,3.1,ENE,4.6,-,N/A,,Mist,60,2012-10-07 04:00:00
6:30 AM,62.6,60.8,94,30.01,3.7,ENE,4.6,-,N/A,,Unknown,60,2012-10-07 04:30:00
7:00 AM,62,61,97,30.00,4,East,4.5,,,,Mist,80,2012-10-07 05:00:00
7:00 AM,62.6,60.8,94,29.98,3.7,East,4.6,-,N/A,,Scattered Clouds,80,2012-10-07 05:00:00
7:30 AM,62.6,60.8,94,29.98,3.7,East,4.6,-,N/A,Fog,Fog,80,2012-10-07 05:30:00
8:00 AM,62,61,95,30.00,4,Calm,Calm,,,Fog,Patches of Fog,,2012-10-07 06:00:00
8:00 AM,62.6,60.8,94,29.98,3.7,Calm,Calm,-,N/A,Fog,Fog,0,2012-10-07 06:00:00
8:30 AM,64.4,62.6,94,29.98,3.7,Variable,2.3,-,N/A,Fog,Fog,0,2012-10-07 06:30:00
9:00 AM,66.2,64.4,94,29.98,3.7,Variable,1.2,-,N/A,,Partly Cloudy,0,2012-10-07 07:00:00
9:30 AM,66.2,66.2,100,29.98,5.0,Variable,2.3,-,N/A,,Partly Cloudy,0,2012-10-07 07:30:00
10:00 AM,68,66,92,29.99,8,SW,4.5,,,,Scattered Clouds,230,2012-10-07 08:00:00
10:00 AM,68.0,66.2,94,29.98,6.2,SW,4.6,-,N/A,,Partly Cloudy,230,2012-10-07 08:00:00
10:30 AM,69.8,62.6,78,29.98,6.2,SW,8.1,-,N/A,,Partly Cloudy,230,2012-10-07 08:30:00
11:00 AM,72,62,63,29.98,12,WSW,8.9,,,,Scattered Clouds,240,2012-10-07 09:00:00
11:00 AM,71.6,62.6,73,29.98,6.2,WSW,9.2,-,N/A,,Partly Cloudy,240,2012-10-07 09:00:00
11:30 AM,71.6,60.8,69,29.98,6.2,SW,8.1,-,N/A,,Partly Cloudy,230,2012-10-07 09:30:00
12:00 PM,72,61,59,29.98,12,SW,8.9,,,,Scattered Clouds,230,2012-10-07 10:00:00
12:00 PM,71.6,60.8,69,29.98,6.2,SW,8.1,-,N/A,,Partly Cloudy,230,2012-10-07 10:00:00
12:30 PM,71.6,59.0,64,29.98,6.2,SW,8.1,-,N/A,,Partly Cloudy,230,2012-10-07 10:30:00
1:00 PM,72,59,55,29.96,11,SW,8.9,,,,Scattered Clouds,230,2012-10-07 11:00:00
1:00 PM,71.6,59.0,64,29.95,6.2,SW,6.9,-,N/A,,Partly Cloudy,230,2012-10-07 11:00:00
1:30 PM,71.6,59.0,64,29.95,6.2,WSW,8.1,-,N/A,,Partly Cloudy,240,2012-10-07 11:30:00
2:00 PM,73,61,57,29.95,11,SW,8.9,,,,Scattered Clouds,220,2012-10-07 12:00:00
2:00 PM,73.4,60.8,65,29.95,6.2,SW,8.1,-,N/A,,Partly Cloudy,220,2012-10-07 12:00:00
2:30 PM,73.4,60.8,65,29.92,6.2,WSW,6.9,-,N/A,,Partly Cloudy,240,2012-10-07 12:30:00
3:00 PM,72,59,54,29.93,12,WSW,8.9,,,,Scattered Clouds,240,2012-10-07 13:00:00
3:00 PM,73.4,59.0,61,29.92,6.2,WSW,8.1,-,N/A,,Partly Cloudy,240,2012-10-07 13:00:00
3:30 PM,73.4,59.0,61,29.92,6.2,SW,8.1,-,N/A,,Partly Cloudy,230,2012-10-07 13:30:00
4:00 PM,72,58,51,29.92,12,SW,8.9,,,,Scattered Clouds,220,2012-10-07 14:00:00
4:00 PM,71.6,57.2,60,29.92,6.2,SW,8.1,-,N/A,,Partly Cloudy,220,2012-10-07 14:00:00
4:30 PM,71.6,59.0,64,29.92,-9999.0,WSW,8.1,-,N/A,,Clear,240,2012-10-07 14:30:00
5:00 PM,73,58,49,29.91,16,SW,4.5,,,,Clear,220,2012-10-07 15:00:00
5:00 PM,73.4,57.2,57,29.89,-9999.0,SW,6.9,-,N/A,,Clear,220,2012-10-07 15:00:00
5:30 PM,71.6,57.2,60,29.89,-9999.0,SSW,4.6,-,N/A,,Clear,210,2012-10-07 15:30:00
6:00 PM,70,58,56,29.90,16,South,6.7,,,,Clear,170,2012-10-07 16:00:00
6:00 PM,69.8,57.2,64,29.89,-9999.0,South,5.8,-,N/A,,Clear,170,2012-10-07 16:00:00
6:30 PM,66.2,57.2,73,29.92,-9999.0,Variable,1.2,-,N/A,,Clear,0,2012-10-07 16:30:00
7:00 PM,65,59,76,29.92,12,ESE,4.5,,,,Scattered Clouds,120,2012-10-07 17:00:00
7:00 PM,64.4,59.0,83,29.92,6.2,Variable,2.3,-,N/A,,Partly Cloudy,0,2012-10-07 17:00:00
7:30 PM,64.4,60.8,88,29.92,6.2,Variable,3.5,-,N/A,,Partly Cloudy,0,2012-10-07 17:30:00
8:00 PM,63,61,89,29.93,12,East,2.2,,,,Partly Cloudy,100,2012-10-07 18:00:00
8:00 PM,62.6,60.8,94,29.92,6.2,Variable,3.5,-,N/A,,Scattered Clouds,0,2012-10-07 18:00:00
8:30 PM,64.4,62.6,94,29.92,6.2,East,4.6,-,N/A,,Mostly Cloudy,80,2012-10-07 18:30:00
9:00 PM,66.2,64.4,94,29.95,6.2,East,4.6,-,N/A,,Mostly Cloudy,80,2012-10-07 19:00:00
9:30 PM,66.2,64.4,94,29.95,6.2,Variable,3.5,-,N/A,,Scattered Clouds,0,2012-10-07 19:30:00
10:00 PM,66.2,64.4,94,29.95,6.2,Variable,2.3,-,N/A,,Scattered Clouds,0,2012-10-07 20:00:00
10:30 PM,68.0,64.4,88,29.95,6.2,Variable,1.2,-,N/A,,Partly Cloudy,0,2012-10-07 20:30:00
11:00 PM,67,64,86,29.96,12,East,4.5,,,,Scattered Clouds,80,2012-10-07 21:00:00
11:00 PM,66.2,64.4,94,29.95,6.2,East,4.6,-,N/A,,Partly Cloudy,80,2012-10-07 21:00:00
11:30 PM,66.2,64.4,94,29.95,6.2,ENE,4.6,-,N/A,,Scattered Clouds,70,2012-10-07 21:30:00